TimeGMT,TemperatureF,Dew PointF,Humidity,Sea Level PressureIn,VisibilityMPH,Wind Direction,Wind SpeedMPH,Gust SpeedMPH,PrecipitationIn,Events,Conditions,WindDirDegrees,DateUTC
12:20 AM,32.0,32.0,100,29.74,1.2,ENE,9.2,-,N/A,Snow,Snow,70,2012-12-03 00:20:00
12:50 AM,32.0,32.0,100,29.71,2.2,ENE,8.1,-,N/A,Rain-Snow,Light Rain,60,2012-12-03 00:50:00
1:20 AM,32.0,32.0,100,29.71,1.2,ENE,8.1,-,N/A,Rain-Snow,Light Rain,70,2012-12-03 01:20:00
1:50 AM,32.0,32.0,100,29.68,1.0,ENE,8.1,-,N/A,Rain,Rain,70,2012-12-03 01:50:00
2:20 AM,32.0,32.0,100,29.68,-9999.0,ENE,8.1,-,N/A,Rain,Rain,70,2012-12-03 02:20:00
2:50 AM,32.0,32.0,100,29.65,1.5,ENE,8.1,-,N/A,Rain,Rain,70,2012-12-03 02:50:00
3:20 AM,32.0,32.0,100,29.65,1.7,ENE,8.1,-,N/A,,Drizzle,70,2012-12-03 03:20:00
3:50 AM,32.0,32.0,100,29.62,1.4,ENE,5.8,-,N/A,,Drizzle,70,2012-12-03 03:50:00
4:20 AM,33.8,32.0,93,29.62,2.2,ENE,5.8,-,N/A,,Drizzle,60,2012-12-03 04:20:00
4:50 AM,33.8,32.0,93,29.62,-9999.0,ENE,5.8,-,N/A,,Drizzle,70,2012-12-03 04:50:00
5:20 AM,33.8,32.0,93,29.59,4.3,East,4.6,-,N/A,,Light Drizzle,90,2012-12-03 05:20:00
5:50 AM,33.8,32.0,93,29.59,2.2,NE,3.5,-,N/A,Rain,Light Rain,40,2012-12-03 05:50:00
6:20 AM,33.8,32.0,93,29.59,2.2,Calm,Calm,-,N/A,Rain,Light Rain,0,2012-12-03 06:20:00
6:50 AM,32.0,32.0,100,29.56,-9999.0,Variable,2.3,-,N/A,,Light Drizzle,0,2012-12-03 06:50:00
7:20 AM,32.0,32.0,100,29.59,2.2,West,4.6,-,N/A,,Light Drizzle,260,2012-12-03 07:20:00
7:50 AM,32.0,32.0,100,29.56,-9999.0,Calm,Calm,-,N/A,,Light Drizzle,0,2012-12-03 07:50:00
8:20 AM,32.0,32.0,100,29.56,-9999.0,North,2.3,-,N/A,,Light Drizzle,350,2012-12-03 08:20:00
8:50 AM,32.0,32.0,100,29.56,1.9,Variable,3.5,-,N/A,,Light Drizzle,0,2012-12-03 08:50:00
9:20 AM,32.0,32.0,100,29.56,1.4,Variable,3.5,-,N/A,,Light Drizzle,0,2012-12-03 09:20:00
9:50 AM,33.8,32.0,93,29.53,2.5,Variable,3.5,-,N/A,,Mostly Cloudy,0,2012-12-03 09:50:00
10:20 AM,33.8,32.0,93,29.53,1.4,Variable,2.3,-,N/A,,Mostly Cloudy,0,2012-12-03 10:20:00
10:50 AM,33.8,32.0,93,29.53,6.2,NE,4.6,-,N/A,,Mostly Cloudy,40,2012-12-03 10:50:00
11:20 AM,35.6,33.8,93,29.53,4.3,NE,2.3,-,N/A,Rain,Light Rain,40,2012-12-03 11:20:00
11:50 AM,37.4,35.6,93,29.53,4.3,WNW,5.8,-,N/A,Rain,Light Rain,300,2012-12-03 11:50:00
12:20 PM,37.4,35.6,93,29.53,5.0,West,12.7,-,N/A,Rain,Light Rain,270,2012-12-03 12:20:00
12:50 PM,37.4,33.8,87,29.53,6.2,WSW,6.9,-,N/A,Rain,Light Rain,240,2012-12-03 12:50:00
1:20 PM,37.4,35.6,93,29.50,6.2,WSW,9.2,-,N/A,Rain,Light Rain,250,2012-12-03 13:20:00
1:50 PM,37.4,35.6,93,29.50,6.2,WSW,11.5,-,N/A,,Scattered Clouds,250,2012-12-03 13:50:00
2:20 PM,37.4,35.6,93,29.50,6.2,WSW,9.2,-,N/A,Rain,Light Rain,250,2012-12-03 14:20:00
2:50 PM,39.2,35.6,87,29.50,6.2,West,8.1,-,N/A,,Mostly Cloudy,260,2012-12-03 14:50:00
3:20 PM,35.6,33.8,93,29.50,6.2,WSW,9.2,-,N/A,,Mostly Cloudy,240,2012-12-03 15:20:00
3:50 PM,37.4,35.6,93,29.50,6.2,WSW,9.2,-,N/A,Rain,Light Rain,240,2012-12-03 15:50:00
4:20 PM,39.2,35.6,87,29.50,6.2,West,8.1,-,N/A,Rain,Light Rain,260,2012-12-03 16:20:00
4:50 PM,37.4,35.6,93,29.50,6.2,West,6.9,-,N/A,Rain,Light Rain Showers,270,2012-12-03 16:50:00
5:20 PM,37.4,35.6,93,29.50,6.2,West,5.8,-,N/A,Rain,Light Rain Showers,260,2012-12-03 17:20:00
5:50 PM,39.2,35.6,87,29.47,6.2,West,5.8,-,N/A,Rain,Light Rain Showers,260,2012-12-03 17:50:00
6:20 PM,39.2,35.6,87,29.47,6.2,West,8.1,-,N/A,Rain,Light Rain,260,2012-12-03 18:20:00
6:50 PM,39.2,35.6,87,29.47,6.2,NW,9.2,-,N/A,Rain,Light Rain,310,2012-12-03 18:50:00
7:20 PM,39.2,35.6,87,29.47,6.2,West,4.6,-,N/A,,Mostly Cloudy,260,2012-12-03 19:20:00
7:50 PM,37.4,35.6,93,29.47,6.2,Variable,2.3,-,N/A,Rain,Light Rain Showers,0,2012-12-03 19:50:00
8:20 PM,37.4,35.6,93,29.50,6.2,West,6.9,-,N/A,,Mostly Cloudy,270,2012-12-03 20:20:00
8:50 PM,37.4,35.6,93,29.47,6.2,Calm,Calm,-,N/A,,Mostly Cloudy,0,2012-12-03 20:50:00
9:20 PM,35.6,33.8,93,29.47,6.2,West,4.6,-,N/A,,Scattered Clouds,260,2012-12-03 21:20:00
9:50 PM,33.8,32.0,93,29.47,6.2,WSW,5.8,-,N/A,,Scattered Clouds,250,2012-12-03 21:50:00
10:20 PM,35.6,33.8,93,29.47,6.2,West,3.5,-,N/A,,Partly Cloudy,260,2012-12-03 22:20:00
10:50 PM,33.8,32.0,93,29.47,6.2,WNW,5.8,-,N/A,,Partly Cloudy,290,2012-12-03 22:50:00
11:20 PM,33.8,32.0,93,29.50,6.2,Variable,3.5,-,N/A,,Partly Cloudy,0,2012-12-03 23:20:00
11:50 PM,35.6,33.8,93,29.50,6.2,Variable,3.5,-,N/A,,Partly Cloudy,0,2012-12-03 23:50:00